GW2385 Weather Reports


Display with metric or nautical units.
time (UTC)temp
F
wind
direction
speed
MPH
gust
MPH
rain 1hr
in
rain 24hr
in
rain mn
in
humidity
%
barometer
mb
20260507085032 51 154 1.0 2.0 0.00 0.00 0.00 81 1019.3
20260507084528 51 157 2.0 2.0 0.00 0.00 0.00 80 1019.6
20260507084026 52 175 1.0 1.0 0.00 0.00 0.00 80 1019.6
20260507083521 52 173 1.0 1.0 0.00 0.00 0.00 81 1019.3
20260507083019 52 113 3.0 3.0 0.00 0.00 0.00 80 1019.7
20260507082515 53 108 1.0 1.0 0.00 0.00 0.00 79 1019.6
20260507082011 53 131 1.0 1.0 0.00 0.00 0.00 81 1019.4
20260507081508 53 158 1.0 1.0 0.00 0.00 0.00 81 1019.5
20260507081005 53 178 1.0 1.0 0.00 0.00 0.00 81 1019.5
20260507080500 53 207 1.0 1.0 0.00 0.00 0.00 81 1019.6
20260507075956 53 173 0.0 1.0 0.00 0.00 0.00 81 1019.6
20260507075452 53 144 2.0 2.0 0.00 0.00 0.00 81 1019.6
20260507074949 53 161 0.0 0.0 0.00 0.00 0.00 82 1019.6
20260507074446 53 195 1.0 1.0 0.00 0.00 0.00 82 1019.7
20260507073944 53 162 1.0 1.0 0.00 0.00 0.00 82 1019.5
20260507073440 53 196 0.0 1.0 0.00 0.00 0.00 82 1019.5
20260507072937 53 212 0.0 0.0 0.00 0.00 0.00 82 1019.5
20260507072434 53 163 0.0 0.0 0.00 0.00 0.00 82 1019.5
20260507071932 53 190 1.0 1.0 0.00 0.00 0.00 82 1019.5
20260507071428 53 147 0.0 0.0 0.00 0.00 0.00 82 1019.6
20260507070925 53 158 1.0 1.0 0.00 0.00 0.00 81 1019.3
20260507070423 53 231 1.0 1.0 0.00 0.00 0.00 81 1019.6
20260507065919 53 141 0.0 1.0 0.00 0.00 0.00 82 1019.5
20260507065416 53 152 2.0 2.0 0.00 0.00 0.00 82 1019.8
20260507064913 53 162 0.0 0.0 0.00 0.00 0.00 83 1019.6
20260507064411 53 147 0.0 0.0 0.00 0.00 0.00 83 1019.5
20260507063909 53 150 0.0 0.0 0.00 0.00 0.00 83 1019.7
20260507063405 54 197 1.0 1.0 0.00 0.00 0.00 83 1019.5
20260507062857 54 187 1.0 1.0 0.00 0.00 0.00 83 1019.4
20260507062353 54 147 0.0 0.0 0.00 0.00 0.00 83 1019.4
20260507061851 54 212 4.0 5.0 0.00 0.00 0.00 83 1019.4
20260507061349 54 144 0.0 1.0 0.00 0.00 0.00 83 1019.4
20260507060847 54 117 1.0 1.0 0.00 0.00 0.00 83 1019.4
20260507060343 54 174 1.0 1.0 0.00 0.00 0.00 83 1019.3
20260507055840 54 161 1.0 2.0 0.00 0.00 0.00 83 1019.5
20260507055335 54 249 4.0 5.0 0.00 0.00 0.00 83 1019.3
20260507054832 54 174 0.0 1.0 0.00 0.00 0.00 83 1019.6
20260507054328 54 181 1.0 1.0 0.00 0.00 0.00 82 1019.6
20260507053825 55 178 1.0 1.0 0.00 0.00 0.00 82 1019.6
20260507053324 55 152 0.0 0.0 0.00 0.00 0.00 81 1019.7
20260507052822 55 142 1.0 1.0 0.00 0.00 0.00 81 1019.5
20260507052318 55 160 1.0 2.0 0.00 0.00 0.00 80 1019.5
20260507051816 55 213 1.0 1.0 0.00 0.00 0.00 80 1019.4
20260507051313 55 264 3.0 5.0 0.00 0.00 0.00 80 1019.4
20260507050810 55 163 2.0 2.0 0.00 0.00 0.00 80 1019.3
20260507050306 55 128 1.0 2.0 0.00 0.00 0.00 80 1019.6
20260507045803 55 152 3.0 5.0 0.00 0.00 0.00 80 1019.4
20260507045300 55 267 3.0 5.0 0.00 0.00 0.00 80 1019.4
20260507044757 55 147 4.0 6.0 0.00 0.00 0.00 80 1019.4
20260507044253 55 240 2.0 2.0 0.00 0.00 0.00 80 1019.4
20260507043749 56 165 1.0 1.0 0.00 0.00 0.00 81 1019.3
20260507043246 56 191 0.0 1.0 0.00 0.00 0.00 80 1019.4
20260507042743 56 162 0.0 0.0 0.00 0.00 0.00 80 1019.3
20260507042237 56 170 0.0 1.0 0.00 0.00 0.00 80 1019.5
20260507041736 56 166 1.0 1.0 0.00 0.00 0.00 80 1019.3
20260507041232 56 148 0.0 0.0 0.00 0.00 0.00 80 1019.5
20260507040729 56 139 0.0 0.0 0.00 0.00 0.00 79 1019.1
20260507040225 56 176 0.0 1.0 0.00 0.00 0.00 79 1019.2
20260507035721 56 142 0.0 0.0 0.00 0.00 0.00 79 1019.3
20260507035216 56 135 0.0 1.0 0.00 0.00 0.00 78 1019.1
20260507034714 56 195 0.0 1.0 0.00 0.00 0.00 78 1019.2
20260507034211 56 182 0.0 1.0 0.00 0.00 0.00 78 1019.2
20260507033709 56 271 1.0 1.0 0.00 0.00 0.00 78 1019.0
20260507033206 57 141 0.0 0.0 0.00 0.00 0.00 78 1019.1
20260507032704 57 222 2.0 2.0 0.00 0.00 0.00 77 1019.0
20260507032159 57 117 1.0 1.0 0.00 0.00 0.00 77 1018.9
20260507031657 57 153 0.0 0.0 0.00 0.00 0.00 77 1018.9
20260507031153 57 149 0.0 0.0 0.00 0.00 0.00 77 1018.9
20260507030650 57 141 0.0 0.0 0.00 0.00 0.00 77 1018.9
20260507030148 57 123 0.0 0.0 0.00 0.00 0.00 77 1018.8
20260507025644 58 182 1.0 2.0 0.00 0.00 0.00 76 1018.8
20260507025142 58 146 0.0 0.0 0.00 0.00 0.00 76 1018.7
20260507024639 58 140 0.0 0.0 0.00 0.00 0.00 76 1018.6
20260507024136 58 119 0.0 0.0 0.00 0.00 0.00 76 1018.7
20260507023632 58 150 0.0 0.0 0.00 0.00 0.00 76 1018.9
20260507023130 58 87 1.0 1.0 0.00 0.00 0.00 75 1018.7
20260507022626 58 178 1.0 1.0 0.00 0.00 0.00 76 1018.5
20260507022121 58 129 0.0 1.0 0.00 0.00 0.00 76 1018.7
20260507021618 58 129 0.0 0.0 0.00 0.00 0.00 76 1018.6
20260507021114 58 218 1.0 2.0 0.00 0.00 0.00 76 1018.7
20260507020613 58 136 0.0 0.0 0.00 0.00 0.00 76 1018.7
20260507020109 58 160 0.0 0.0 0.00 0.00 0.00 75 1018.3
20260507015608 59 154 0.0 0.0 0.00 0.00 0.00 75 1018.7
20260507015105 59 132 0.0 0.0 0.00 0.00 0.00 75 1018.5
20260507014602 59 103 1.0 1.0 0.00 0.00 0.00 74 1018.6
20260507014057 59 143 1.0 1.0 0.00 0.00 0.00 74 1018.5
20260507013554 60 112 0.0 0.0 0.00 0.00 0.00 73 1018.6
20260507013051 60 196 0.0 1.0 0.00 0.00 0.00 71 1018.3
20260507012548 60 200 1.0 2.0 0.00 0.00 0.00 71 1018.4
20260507012044 60 242 2.0 2.0 0.00 0.00 0.00 71 1018.6
20260507011542 60 152 2.0 3.0 0.00 0.00 0.00 69 1018.5
20260507011038 62 250 4.0 5.0 0.00 0.00 0.00 68 1018.5
20260507010532 61 173 1.0 1.0 0.00 0.00 0.00 69 1018.6
20260507010029 61 148 1.0 1.0 0.00 0.00 0.00 69 1018.6
20260507005527 61 133 1.0 1.0 0.00 0.00 0.00 69 1018.6
20260507005023 61 214 2.0 2.0 0.00 0.00 0.00 69 1018.5
20260507004520 61 94 1.0 1.0 0.00 0.00 0.00 70 1018.8
20260507004018 60 264 3.0 3.0 0.00 0.00 0.00 71 1018.6
20260507003513 60 248 2.0 2.0 0.00 0.00 0.00 70 1018.5
20260507003008 60 104 2.0 2.0 0.00 0.00 0.00 70 1018.6
20260507002505 61 210 2.0 2.0 0.00 0.00 0.00 70 1018.5
20260507002001 61 164 3.0 3.0 0.00 0.00 0.00 70 1018.5
20260507001458 60 180 1.0 1.0 0.00 0.00 0.00 70 1018.6
20260507000955 61 255 2.0 2.0 0.00 0.00 0.00 69 1018.7
20260507000451 61 134 1.0 1.0 0.00 0.00 0.00 69 1018.5
20260506235946 61 128 0.0 0.0 0.00 0.00 0.00 69 1018.5
20260506235444 62 66 1.0 1.0 0.00 0.00 0.00 68 1018.6
20260506234940 61 56 1.0 1.0 0.00 0.00 0.00 68 1018.6
20260506234437 62 275 2.0 3.0 0.00 0.00 0.00 69 1018.6
20260506233935 62 194 0.0 1.0 0.00 0.00 0.00 68 1018.6
20260506233431 62 130 0.0 0.0 0.00 0.00 0.00 67 1018.7
20260506232928 62 22 1.0 1.0 0.00 0.00 0.00 68 1018.7
20260506232424 62 141 0.0 0.0 0.00 0.00 0.00 67 1018.7
20260506231920 64 117 1.0 1.0 0.00 0.00 0.00 66 1018.6
20260506231418 64 161 0.0 0.0 0.00 0.00 0.00 64 1018.6
20260506230915 64 143 2.0 2.0 0.00 0.00 0.00 64 1018.7
20260506230411 62 116 1.0 1.0 0.00 0.00 0.00 68 1018.7
20260506225908 62 255 6.0 8.0 0.00 0.00 0.00 67 1018.7
20260506225405 61 40 0.0 1.0 0.00 0.00 0.00 69 1018.6
20260506224902 61 189 0.0 1.0 0.00 0.00 0.00 69 1018.3
20260506224359 61 114 2.0 5.0 0.00 0.00 0.00 69 1018.6
20260506223855 60 142 5.0 6.0 0.00 0.00 0.00 70 1019.0
20260506223351 61 232 2.0 2.0 0.00 0.00 0.00 69 1018.9
20260506222848 60 119 0.0 0.0 0.00 0.00 0.00 69 1018.7
20260506222344 60 165 1.0 2.0 0.00 0.00 0.00 70 1018.8
20260506221842 60 223 1.0 2.0 0.00 0.00 0.00 70 1018.9
20260506221339 61 198 1.0 1.0 0.00 0.00 0.00 70 1019.0
20260506220837 61 198 2.0 2.0 0.00 0.00 0.00 69 1019.1
20260506220332 61 190 1.0 1.0 0.00 0.00 0.00 69 1019.0
20260506215829 61 93 0.0 1.0 0.00 0.00 0.00 69 1019.0
20260506215324 60 167 1.0 2.0 0.00 0.00 0.00 70 1018.9
20260506214821 61 357 1.0 1.0 0.00 0.00 0.00 71 1019.0
20260506214317 60 159 0.0 0.0 0.00 0.00 0.00 72 1019.0
20260506213816 60 218 1.0 2.0 0.00 0.00 0.00 72 1018.9
20260506213313 60 177 1.0 1.0 0.00 0.00 0.00 74 1019.0
20260506212810 59 155 1.0 1.0 0.00 0.00 0.00 73 1018.9
20260506212307 59 203 2.0 2.0 0.00 0.00 0.00 74 1018.9
20260506211801 59 232 1.0 2.0 0.00 0.00 0.00 74 1019.2
20260506211257 59 206 4.0 5.0 0.00 0.00 0.00 74 1018.9
20260506210754 59 256 2.0 3.0 0.00 0.00 0.00 75 1018.9
20260506210251 59 178 1.0 1.0 0.00 0.00 0.00 75 1018.9
20260506205748 58 188 1.0 1.0 0.00 0.00 0.00 75 1019.1
20260506205244 58 130 0.0 0.0 0.00 0.00 0.00 75 1019.1
20260506204741 58 237 3.0 3.0 0.00 0.00 0.00 75 1018.8
20260506204239 59 110 1.0 2.0 0.00 0.00 0.00 75 1018.8
20260506203736 58 147 4.0 5.0 0.00 0.00 0.00 77 1018.8
20260506203233 58 239 1.0 1.0 0.00 0.00 0.00 76 1018.9
20260506202731 58 208 3.0 3.0 0.00 0.00 0.00 77 1019.0
20260506202227 58 157 1.0 1.0 0.00 0.00 0.00 77 1018.8
20260506201724 58 236 3.0 5.0 0.00 0.00 0.00 76 1018.9
20260506201220 58 225 4.0 6.0 0.00 0.00 0.00 78 1018.6
20260506200718 58 62 1.0 1.0 0.00 0.00 0.00 79 1018.9
20260506200214 58 137 2.0 2.0 0.00 0.00 0.00 80 1018.9
20260506195710 57 195 5.0 7.0 0.00 0.00 0.00 80 1018.9
20260506195207 57 168 2.0 5.0 0.00 0.00 0.00 80 1018.8
20260506194659 57 104 1.0 2.0 0.00 0.00 0.00 81 1018.8
20260506194155 57 111 2.0 2.0 0.00 0.00 0.00 81 1018.7
20260506193653 57 138 3.0 3.0 0.00 0.00 0.00 82 1018.9
20260506193149 57 146 4.0 6.0 0.00 0.00 0.00 82 1018.8
20260506192646 57 218 5.0 6.0 0.00 0.00 0.00 81 1018.7
20260506192142 57 172 2.0 2.0 0.00 0.00 0.00 81 1018.7
20260506191640 57 187 1.0 2.0 0.00 0.00 0.00 82 1018.9
20260506191135 57 136 3.0 3.0 0.00 0.00 0.00 82 1018.7
20260506190633 57 165 1.0 1.0 0.00 0.00 0.00 83 1018.8
20260506190130 57 178 1.0 2.0 0.00 0.00 0.00 84 1018.7
20260506185627 56 165 3.0 6.0 0.00 0.00 0.00 83 1018.8
20260506185123 56 106 7.0 8.0 0.00 0.00 0.00 83 1019.0
20260506184620 56 171 3.0 3.0 0.00 0.00 0.00 84 1019.0
20260506184118 56 138 4.0 5.0 0.00 0.00 0.00 84 1018.8
20260506183614 56 220 1.0 1.0 0.00 0.00 0.00 84 1018.8
20260506183110 55 167 2.0 2.0 0.00 0.00 0.00 85 1018.6
20260506182608 55 146 3.0 3.0 0.00 0.00 0.00 85 1018.5
20260506182105 56 123 7.0 8.0 0.00 0.00 0.00 84 1018.6
20260506181603 56 119 2.0 2.0 0.00 0.00 0.00 85 1018.7
20260506181059 56 175 4.0 6.0 0.00 0.00 0.00 85 1018.8
20260506180556 55 154 1.0 2.0 0.00 0.00 0.00 85 1018.8
20260506180052 55 132 1.0 1.0 0.00 0.00 0.00 85 1018.5
20260506175549 55 152 0.0 0.0 0.00 0.00 0.00 86 1018.7
20260506175045 55 326 1.0 1.0 0.00 0.00 0.00 85 1018.7
20260506174544 55 226 3.0 3.0 0.00 0.00 0.00 85 1018.6
20260506174039 55 94 3.0 5.0 0.00 0.00 0.00 85 1018.5
20260506173538 55 155 0.0 0.0 0.00 0.00 0.00 86 1018.5
20260506173034 55 193 2.0 2.0 0.00 0.00 0.00 86 1018.6
20260506172532 55 188 0.0 1.0 0.00 0.00 0.00 86 1018.6
20260506172028 54 108 3.0 3.0 0.00 0.00 0.00 87 1018.6
20260506171525 54 205 2.0 2.0 0.00 0.00 0.00 87 1018.6
20260506171023 54 281 1.0 2.0 0.00 0.00 0.00 87 1018.7
20260506170520 54 216 2.0 2.0 0.00 0.00 0.00 87 1018.7
20260506170012 54 132 4.0 6.0 0.00 0.00 0.00 87 1018.5
20260506165510 54 85 1.0 2.0 0.00 0.00 0.00 87 1018.6
20260506165006 54 150 0.0 1.0 0.00 0.00 0.00 87 1018.5
20260506164503 54 276 3.0 3.0 0.00 0.00 0.00 87 1018.4
20260506164001 54 129 1.0 2.0 0.00 0.00 0.00 87 1018.5
20260506163455 54 175 0.0 0.0 0.00 0.00 0.00 88 1018.2
20260506162949 54 238 2.0 2.0 0.00 0.00 0.00 88 1018.2
20260506162448 54 219 0.0 1.0 0.00 0.00 0.00 89 1018.2
20260506161939 54 253 2.0 2.0 0.00 0.00 0.00 88 1018.1
20260506161437 54 158 0.0 1.0 0.00 0.00 0.00 88 1018.2
20260506160929 53 154 0.0 0.0 0.00 0.00 0.00 89 1018.3
20260506160426 53 200 0.0 1.0 0.00 0.00 0.00 88 1018.3
20260506155923 54 222 1.0 1.0 0.00 0.00 0.00 89 1018.2
20260506155420 54 196 1.0 1.0 0.00 0.00 0.00 89 1018.4
20260506153542 53 145 3.0 3.0 0.00 0.00 0.00 89 1018.0
20260506153040 53 166 1.0 2.0 0.00 0.00 0.00 89 1018.0
20260506152537 53 214 2.0 2.0 0.00 0.00 0.00 88 1018.3
20260506152035 53 168 0.0 1.0 0.00 0.00 0.00 89 1018.2
20260506151532 53 184 1.0 2.0 0.00 0.00 0.00 89 1018.3
20260506151029 53 258 2.0 2.0 0.00 0.00 0.00 89 1018.2
20260506150526 53 82 0.0 1.0 0.00 0.00 0.00 89 1018.5
20260506150023 53 128 0.0 1.0 0.00 0.00 0.00 89 1018.4
20260506145519 53 222 1.0 3.0 0.00 0.00 0.00 89 1018.6
20260506145017 53 254 1.0 2.0 0.00 0.00 0.00 89 1018.1
20260506144513 53 150 3.0 3.0 0.00 0.00 0.00 89 1017.8
20260506144011 53 143 1.0 1.0 0.00 0.00 0.00 89 1018.0
20260506143509 53 131 2.0 2.0 0.00 0.00 0.00 89 1017.7
20260506143007 53 182 3.0 3.0 0.00 0.00 0.00 90 1018.0
20260506142504 53 149 3.0 3.0 0.00 0.00 0.00 90 1018.0
20260506142002 53 133 2.0 3.0 0.00 0.00 0.00 90 1018.1
20260506141500 53 124 3.0 6.0 0.00 0.00 0.00 90 1017.9
20260506140958 53 142 2.0 2.0 0.00 0.00 0.00 90 1017.7
20260506140455 53 232 1.0 2.0 0.00 0.00 0.00 90 1018.0
20260506135951 53 143 5.0 7.0 0.00 0.00 0.00 91 1017.4
20260506135449 53 175 2.0 2.0 0.00 0.00 0.00 90 1018.0
20260506134944 53 186 2.0 3.0 0.00 0.00 0.00 90 1018.0
20260506134441 53 200 1.0 2.0 0.00 0.00 0.00 90 1017.9
20260506133938 53 129 1.0 2.0 0.00 0.00 0.00 90 1017.9
20260506133435 53 154 1.0 1.0 0.00 0.00 0.00 90 1017.9
20260506132931 53 174 0.0 0.0 0.00 0.00 0.00 90 1017.9
20260506132429 53 172 1.0 1.0 0.00 0.00 0.00 90 1017.5
20260506131926 53 179 0.0 1.0 0.00 0.00 0.00 90 1017.3
20260506131422 53 166 3.0 3.0 0.00 0.00 0.00 90 1017.3
20260506130920 53 133 2.0 2.0 0.00 0.00 0.00 90 1017.3
20260506130416 53 133 2.0 2.0 0.00 0.00 0.00 91 1017.3
20260506125914 53 149 2.0 2.0 0.00 0.00 0.00 91 1017.2
20260506125412 53 144 1.0 2.0 0.00 0.00 0.00 91 1017.5
20260506124910 53 184 1.0 2.0 0.00 0.00 0.00 92 1017.4
20260506124407 53 124 1.0 2.0 0.00 0.00 0.00 92 1017.3
20260506123905 53 180 1.0 1.0 0.00 0.00 0.00 92 1017.3
20260506123403 53 167 1.0 1.0 0.00 0.00 0.00 92 1017.2
20260506122900 53 160 1.0 1.0 0.00 0.00 0.00 92 1017.2
20260506122356 53 135 1.0 1.0 0.00 0.00 0.00 92 1017.2
20260506121855 53 185 1.0 1.0 0.00 0.00 0.00 92 1017.4
20260506121352 53 147 1.0 1.0 0.00 0.00 0.00 92 1017.2
20260506120848 53 151 2.0 2.0 0.00 0.00 0.00 92 1017.2
20260506120346 53 174 3.0 5.0 0.00 0.00 0.00 92 1017.0
20260506115843 53 160 3.0 3.0 0.00 0.00 0.00 93 1017.0
20260506115342 53 151 3.0 3.0 0.00 0.00 0.00 93 1016.8
20260506114839 53 174 2.0 2.0 0.00 0.00 0.00 93 1016.9
20260506114337 53 159 3.0 3.0 0.00 0.00 0.00 93 1017.0
20260506113835 53 157 2.0 2.0 0.00 0.00 0.00 93 1017.0
20260506113332 53 201 1.0 1.0 0.00 0.00 0.00 93 1017.2
20260506112829 53 147 2.0 2.0 0.00 0.00 0.00 93 1017.2
20260506112326 53 143 1.0 1.0 0.00 0.00 0.00 92 1017.0
20260506111823 53 160 1.0 2.0 0.00 0.00 0.00 92 1017.0
20260506111322 53 191 1.0 1.0 0.00 0.00 0.00 92 1017.0
20260506110819 53 159 2.0 2.0 0.00 0.00 0.00 91 1017.0
20260506110316 53 191 1.0 1.0 0.00 0.00 0.00 91 1017.0
20260506105812 54 157 1.0 1.0 0.00 0.00 0.00 90 1017.0
20260506105309 54 182 1.0 1.0 0.00 0.00 0.00 90 1016.9
20260506104807 54 137 2.0 2.0 0.00 0.00 0.00 89 1016.8
20260506104304 54 150 3.0 3.0 0.00 0.00 0.00 89 1016.6
20260506103801 54 177 1.0 2.0 0.00 0.00 0.00 88 1016.6
20260506103259 54 174 0.0 1.0 0.00 0.00 0.00 88 1016.7
20260506102756 54 150 0.0 0.0 0.00 0.00 0.00 88 1016.6
20260506102254 54 163 1.0 1.0 0.00 0.00 0.00 88 1016.6
20260506101751 54 149 2.0 3.0 0.00 0.00 0.00 88 1016.5
20260506101247 54 172 0.0 0.0 0.00 0.00 0.00 88 1016.3
20260506100745 54 165 0.0 0.0 0.00 0.00 0.00 88 1016.4
20260506100243 54 128 1.0 1.0 0.00 0.00 0.00 88 1016.2
20260506095742 54 152 1.0 1.0 0.00 0.00 0.00 88 1016.1
20260506095238 54 169 1.0 1.0 0.00 0.00 0.00 88 1016.0
20260506094735 54 133 1.0 1.0 0.00 0.00 0.00 88 1016.0
20260506094233 55 139 1.0 1.0 0.00 0.00 0.00 88 1016.0
20260506093731 55 121 2.0 2.0 0.00 0.00 0.00 87 1016.2
20260506093228 55 137 1.0 3.0 0.00 0.00 0.00 88 1016.1
20260506092726 55 135 1.0 2.0 0.00 0.00 0.00 88 1016.0
20260506092224 55 127 3.0 3.0 0.00 0.00 0.00 88 1016.1
20260506091721 55 207 1.0 1.0 0.00 0.00 0.00 88 1016.0
20260506091218 55 172 1.0 1.0 0.00 0.00 0.00 88 1016.0
20260506090716 55 192 1.0 1.0 0.00 0.00 0.00 88 1015.9
20260506090212 55 175 1.0 1.0 0.00 0.00 0.00 88 1016.1
20260506085710 55 158 2.0 2.0 0.00 0.00 0.00 88 1016.0